Regional Weather Roundup
Issued by NWS

Home | Current Version | Previous Version | Text Only | Print | Product List | Glossary On
Versions: 1 2 3 4 5 6 7 8 9 10 11 12 13 14 15 16 17 18 19 20 21 22 23 24 25 26 27 28 29 30 31 32 33 34 35 36 37 38 39 40 41 42 43 44 45 46 47 48 49 50
000
ASUS45 KSLC 301510
RWRUT

UTAH REGIONAL WEATHER ROUNDUP
NATIONAL WEATHER SERVICE SALT LAKE CITY UT
900 AM MDT THU JUL 30 2015

UTZ001>011-023>025-301600-

NORTHERN UTAH

CITY           SKY/WX    TMP DP  RH WIND       PRES   REMARKS
BRIGHAM CITY   SUNNY     61  37  41 CALM      30.33S
HILL AFB       SUNNY     63  33  32 SE17G24   30.34R
LOGAN          SUNNY     60  36  40 N5        30.36R
OGDEN          SUNNY     72  33  24 NE7       30.32R
PROVO AIRPORT  SUNNY     66  32  28 CALM      30.34S
SALT LAKE CITY MOSUNNY   72  34  24 S6        30.30S
VERNAL         SUNNY     71  20  14 CALM      30.37R
WENDOVER       SUNNY     72  30  21 SW3       30.31R
HEBER CITY     SUNNY     54  34  47 CALM      30.44S
WEST JORDAN    SUNNY     72  36  26 S6        30.33S

$$

UTZ012>022-026-027-301600-

SOUTHERN/CENTRAL UTAH

CITY           SKY/WX    TMP DP  RH WIND       PRES   REMARKS
BLANDING       MOSUNNY   71  52  52 CALM      30.47S
BRYCE CANYON   SUNNY     65  30  27 N3        30.50R
CEDAR CITY     SUNNY     71  26  18 NW5       30.34R
DELTA          SUNNY     67  26  21 CALM      30.31S
HANKSVILLE     SUNNY     73  28  19 CALM      30.29S
MILFORD        SUNNY     72  25  17 N5        30.31R
MOAB/CYNLANDS  SUNNY     81  28  14 E13       30.27R
PRICE          SUNNY     71  22  15 SE5       30.38R
ST GEORGE      SUNNY     81  39  22 S5        30.16S
KANAB          MOSUNNY   75  48  38 NW7       30.35S

$$

REGIONAL REPORTS     COLORADO/ARIZONA

CITY           SKY/WX    TMP DP  RH WIND       PRES   REMARKS
CRAIG, CO      SUNNY     59  32  36 CALM      30.44S
GRAND JUNCTION SUNNY     73  33  23 S10       30.32R
RIFLE          SUNNY     65  34  31 VRB3      30.40R
MONTROSE       SUNNY     69  39  33 CALM      30.41R
CORTEZ         SUNNY     70  49  47 NE3       30.41S
PAGE, AZ       SUNNY     79  56  45 NW5       30.26R
GRAND CANYON   MOSUNNY   68  51  54 CALM      30.42R
KINGMAN        CLOUDY    83  57  41 SE6       30.19R
FLAGSTAFF      CLOUDY    61  52  72 CALM      30.45R

$$

REGIONAL REPORTS    NEVADA/IDAHO/WYOMING

CITY           SKY/WX    TMP DP  RH WIND       PRES   REMARKS
LAS VEGAS, NV  CLOUDY    90  51  26 SE3       30.03R
ELY            SUNNY     60  25  26 S10       30.43R
ELKO           SUNNY     63  29  27 CALM      30.35R
POCATELLO, ID  SUNNY     61  43  51 CALM      30.36R
BURLEY         SUNNY     61  42  49 N6        30.32R
EVANSTON, WY   SUNNY     59  25  27 SW3       30.50R
ROCK SPRINGS   SUNNY     60  27  28 CALM      30.48R
KEMMERER       SUNNY     57  28  33 N7        30.52R

$$


USA.gov is the U.S. government's official web portal to all federal, state and local government web resources and services.